Simultaneous Nadir Overpasses (SNOs) Predictions

Prediction of SNOs between AQUA and GOES-15 Satellite Orbit:

Table of predicted SNOs for the next 14.0 days since TLE Epoch: 6/15/2018
Index Date Time (AQUA) AQUA Lat,Lon GOES-15 Lat,Lon Distance(km) Time Diff (sec)
1 06/16/2018 22:17:06 0.91,-130.41 0.03,-134.66 482.76 80
2 06/17/2018 10:38:21 0.17,-135.57 -0.05,-134.67 102.37 80
3 06/19/2018 10:26:10 -0.53,-132.62 -0.04,-134.76 244.21 80
4 06/19/2018 22:47:35 -0.55,-137.82 0.07,-134.80 343.02 80
5 06/21/2018 22:35:23 0.09,-134.86 0.06,-134.89 3.95 80
6 06/23/2018 22:23:11 0.74,-131.91 0.06,-134.97 349.04 80
7 06/24/2018 10:44:26 0.35,-137.07 -0.08,-134.98 236.57 80
8 06/26/2018 10:32:14 -0.30,-134.11 -0.09,-135.06 108.45 80
9 06/26/2018 22:53:38 -0.77,-139.31 0.11,-135.09 479.00 80
10 06/28/2018 10:20:02 -0.94,-131.16 -0.08,-135.14 452.97 80
11 06/28/2018 22:41:26 -0.17,-136.35 0.11,-135.17 134.61 80




NCC Satellite Simultaneous Nadir Overpasses (SNOs) Prediction Service
